This is the latest recevied weather packets stored in our database for station/object KE8DAF-15. If no packets are shown the sender has not sent any weather packets the latest 10 day(s).
| Time | Temp. | Humidity | Pressure | Rain* | Wind** | Luminosity | Snow |
|---|---|---|---|---|---|---|---|
| 1777322963 | 15° C | 60% | 998.6 hPa | 0 mm | - | - | - |
| 1777322663 | 15° C | 59% | 998.8 hPa | 0 mm | - | - | - |
| 1777322363 | 15° C | 59% | 998.8 hPa | 0 mm | - | - | - |
| 1777322063 | 15° C | 59% | 998.9 hPa | 0 mm | - | - | - |
| 1777321763 | 15° C | 59% | 999.1 hPa | 0 mm | - | - | - |
| 1777321463 | 15° C | 59% | 999.3 hPa | 0 mm | - | - | - |
| 1777321164 | 15° C | 60% | 999.4 hPa | 0 mm | - | - | - |
| 1777320863 | 15° C | 60% | 999.6 hPa | 0 mm | - | - | - |
| 1777320563 | 15° C | 59% | 999.8 hPa | 0 mm | - | - | - |
| 1777320263 | 15° C | 59% | 999.9 hPa | 0 mm | - | - | - |
| 1777319963 | 15.56° C | 58% | 999.8 hPa | 0 mm | - | - | - |
| 1777319663 | 15.56° C | 57% | 1000 hPa | 0 mm | - | - | - |
| 1777319363 | 16.11° C | 57% | 1000.1 hPa | 0 mm | - | - | - |
| 1777319063 | 16.11° C | 56% | 1000 hPa | 0 mm | - | - | - |
| 1777318763 | 16.67° C | 54% | 1000.2 hPa | 0 mm | - | - | - |
| 1777318463 | 16.67° C | 52% | 1000.4 hPa | 0 mm | - | - | - |
| 1777318163 | 17.22° C | 53% | 1000.4 hPa | 0 mm | - | - | - |
| 1777317863 | 17.78° C | 51% | 1000.5 hPa | 0 mm | - | - | - |
| 1777317565 | 18.33° C | 50% | 1000.6 hPa | 0 mm | - | - | - |
| 1777317263 | 18.33° C | 51% | 1000.7 hPa | 0 mm | - | - | - |
| 1777316963 | 18.33° C | 51% | 1000.7 hPa | 0 mm | - | - | - |
| 1777316663 | 18.33° C | 50% | 1000.7 hPa | 0 mm | - | - | - |
| 1777316363 | 18.33° C | 52% | 1000.8 hPa | 0 mm | - | - | - |
| 1777316063 | 17.78° C | 51% | 1001 hPa | 0 mm | - | - | - |
| 1777315763 | 17.78° C | 53% | 1001 hPa | 0 mm | - | - | - |
* Rain latest hour (hover to see other rain measurements)
** Current wind speed in m/s (hover to see current wind gust speed)